FW5821 Weather Reports


time (UTC)temp
C
wind
direction
speed
KPH
gust
KPH
rain 1hr
cm
rain 24hr
cm
rain mn
cm
humidity
%
barometer
mb
20260506051131 9 0 0.0 0.0 0.00 0.00 0.00 84 1007.0
20260506050130 9 0 0.0 0.0 0.00 0.00 0.00 84 1007.0
20260506045131 9 17 0.0 0.0 0.00 0.00 0.00 85 1007.0
20260506044130 9 31 0.0 0.0 0.00 0.00 0.00 85 1007.0
20260506043132 9 6 0.0 0.0 0.00 0.00 0.00 85 1006.9
20260506042131 9 326 0.0 0.0 0.00 0.00 0.00 85 1006.9
20260506041131 9 0 0.0 0.0 0.00 0.00 0.00 85 1007.0
20260506040133 9 0 0.0 0.0 0.00 0.00 0.00 85 1007.1
20260506035130 9 0 0.0 0.0 0.00 0.00 0.00 85 1007.0
20260506034129 9 16 0.0 0.0 0.00 0.00 0.00 86 1007.1
20260506033129 9 13 0.0 0.0 0.00 0.00 0.00 86 1007.1
20260506032129 9 1 0.0 0.0 0.00 0.00 0.00 86 1007.1
20260506031128 9 17 0.0 0.0 0.00 0.00 0.00 86 1007.1
20260506025130 9 6 0.0 0.0 0.00 0.00 0.00 85 1007.4
20260506024127 9 0 0.0 0.0 0.00 0.00 0.00 85 1007.4
20260506023127 9 6 0.0 0.0 0.00 0.00 0.00 85 1007.4
20260506022128 9 8 0.0 0.0 0.00 0.03 0.00 85 1007.5
20260506020126 9 0 0.0 0.0 0.00 0.03 0.00 84 1007.5
20260506015129 9 14 0.0 0.0 0.00 0.03 0.00 84 1007.6
20260506014125 9 6 0.0 0.0 0.00 0.03 0.00 84 1007.7
20260506013124 9 3 0.0 0.0 0.00 0.03 0.00 83 1007.7
20260506012126 9 6 0.0 0.0 0.00 0.03 0.00 83 1007.7
20260506011124 10 17 0.0 0.0 0.00 0.03 0.00 82 1007.8
20260506010124 10 25 0.0 0.0 0.00 0.03 0.00 82 1007.8
20260506005124 10 27 0.0 0.0 0.00 0.03 0.00 82 1007.8
20260506004123 10 38 0.0 0.0 0.00 0.05 0.00 81 1007.9
20260506002126 10 0 0.0 0.0 0.00 0.05 0.00 80 1008.0
20260506001124 10 4 0.0 0.0 0.00 0.05 0.00 80 1008.0
20260506000126 10 11 0.0 0.0 0.00 0.08 0.00 79 1008.1
20260505235124 10 32 0.0 0.0 0.00 0.10 0.00 79 1008.2
20260505234125 10 17 0.0 0.0 0.00 0.10 0.00 79 1008.3
20260505233124 10 39 0.0 0.0 0.00 0.13 0.00 79 1008.3
20260505232125 10 0 0.0 0.0 0.00 0.13 0.00 78 1008.3
20260505231122 10 30 0.0 0.0 0.00 0.13 0.00 78 1008.4
20260505230123 10 1 0.0 0.0 0.00 0.13 0.00 78 1008.4
20260505224123 10 23 0.0 0.0 0.00 0.13 0.00 78 1008.5
20260505223122 10 1 0.0 0.0 0.00 0.13 0.00 78 1008.7
20260505222123 10 13 0.0 0.0 0.00 0.13 0.00 78 1008.8
20260505221126 10 13 0.0 0.0 0.00 0.13 0.00 77 1008.8
20260505220124 10 10 0.0 0.0 0.00 0.13 0.00 77 1008.8
20260505215124 10 0 0.0 0.0 0.00 0.13 0.13 77 1008.9
20260505214122 11 37 0.0 0.0 0.00 0.13 0.13 78 1008.9
20260505212125 11 20 0.0 0.0 0.00 0.13 0.13 78 1009.0
20260505211122 11 6 0.0 0.0 0.00 0.13 0.13 78 1009.1
20260505210124 11 14 0.0 0.0 0.00 0.13 0.13 78 1009.1
20260505205121 11 10 0.0 0.0 0.00 0.13 0.13 78 1009.2
20260505204123 11 25 0.0 0.0 0.00 0.13 0.13 79 1009.2
20260505203121 11 14 0.0 0.0 0.00 0.13 0.13 79 1009.1
20260505202122 11 10 0.0 0.0 0.00 0.15 0.13 80 1009.3
20260505201120 11 58 0.0 0.0 0.00 0.15 0.13 79 1009.2
20260505200121 11 28 0.0 0.0 0.00 0.15 0.13 79 1009.2
20260505195120 11 30 0.0 0.0 0.00 0.15 0.13 78 1009.2
20260505194120 11 18 0.0 0.0 0.00 0.15 0.13 78 1009.0
20260505193124 11 18 0.0 0.0 0.00 0.23 0.13 77 1009.0
20260505192119 11 17 0.0 0.0 0.00 0.23 0.13 77 1008.9
20260505191119 11 10 0.0 0.0 0.00 0.23 0.13 77 1008.7
20260505190121 11 24 0.0 0.0 0.00 0.23 0.13 77 1008.7
20260505185116 12 35 0.0 0.0 0.00 0.23 0.13 77 1008.7
20260505184117 12 17 0.0 0.0 0.00 0.23 0.13 77 1008.7
20260505183117 12 17 0.0 0.0 0.00 0.23 0.13 76 1008.6
20260505181115 12 51 0.0 0.0 0.00 0.23 0.13 75 1008.5
20260505175114 13 35 0.0 0.0 0.00 0.23 0.13 74 1008.5
20260505174114 13 38 0.0 0.0 0.00 0.23 0.13 73 1008.4
20260505173113 13 11 0.0 0.0 0.00 0.23 0.13 73 1008.5
20260505172117 13 27 0.0 0.0 0.00 0.23 0.13 72 1008.5
20260505171114 13 65 0.0 0.0 0.00 0.23 0.13 74 1008.4
20260505165113 13 69 0.0 0.0 0.00 0.23 0.13 76 1008.5
20260505164114 13 45 0.0 0.0 0.00 0.23 0.13 75 1008.6
20260505163114 12 44 0.0 0.0 0.00 0.23 0.13 75 1008.8
20260505162114 12 27 0.0 0.0 0.00 0.23 0.13 76 1008.8
20260505161113 12 55 0.0 0.0 0.00 0.23 0.13 76 1008.8
20260505160114 12 65 0.0 0.0 0.00 0.23 0.13 77 1009.0
20260505153112 12 51 0.0 0.0 0.00 0.23 0.13 78 1009.1
20260505151111 12 27 0.0 0.0 0.00 0.23 0.13 78 1009.2
20260505150110 12 0 0.0 0.0 0.00 0.23 0.13 78 1009.2
20260505140105 12 21 0.0 0.0 0.00 0.23 0.13 80 1009.5
20260505130104 12 27 0.0 0.0 0.00 0.23 0.13 81 1010.0
20260505124104 12 48 0.0 0.0 0.00 0.23 0.13 80 1010.0
20260505123101 12 10 0.0 0.0 0.00 0.23 0.13 80 1010.1
20260505122057 12 27 0.0 0.0 0.00 0.23 0.13 81 1010.1
20260505121056 12 49 0.0 0.0 0.00 0.23 0.13 82 1010.1
20260505120053 12 41 0.0 0.0 0.00 0.23 0.13 81 1010.1
20260505115056 12 51 0.0 0.0 0.00 0.23 0.13 81 1010.1
20260505112050 11 56 0.0 0.0 0.00 0.23 0.13 81 1010.4
20260505102041 11 25 0.0 0.0 0.00 0.23 0.13 85 1010.5
20260505101041 11 25 0.0 0.0 0.00 0.23 0.13 85 1010.7
20260505095037 10 42 0.0 0.0 0.00 0.23 0.13 86 1010.8
20260505094035 10 18 0.0 0.0 0.00 0.23 0.13 86 1010.7
20260505093033 10 13 0.0 0.0 0.00 0.23 0.13 87 1010.8
20260505092037 10 23 0.0 0.0 0.00 0.23 0.13 87 1010.8
20260505091035 10 49 0.0 0.0 0.00 0.23 0.13 87 1010.8
20260505090037 10 27 0.0 0.0 0.00 0.23 0.13 87 1010.8
20260505085034 10 48 0.0 0.0 0.00 0.23 0.13 87 1010.8
20260505084033 10 44 0.0 0.0 0.00 0.23 0.13 87 1010.8
20260505083036 10 42 0.0 0.0 0.00 0.23 0.13 87 1010.8
20260505082034 10 17 0.0 0.0 0.00 0.23 0.13 88 1010.8
20260505081033 10 41 0.0 0.0 0.00 0.23 0.13 88 1010.9
20260505080049 10 44 0.0 0.0 0.00 0.23 0.13 88 1010.9
20260505075034 10 23 0.0 0.0 0.00 0.23 0.13 88 1010.8
20260505074032 10 0 0.0 0.0 0.00 0.23 0.13 89 1010.7
20260505073035 10 27 0.0 0.0 0.00 0.23 0.13 88 1010.7
20260505071032 9 0 0.0 0.0 0.00 0.23 0.13 88 1010.9
20260505070031 9 28 0.0 0.0 0.00 0.23 0.13 88 1010.9
20260505065027 10 25 0.0 0.0 0.00 0.23 0.13 88 1010.9
20260505064028 10 20 0.0 0.0 0.00 0.23 0.13 88 1011.0
20260505063026 9 47 0.0 0.0 0.00 0.23 0.13 88 1011.0
20260505062025 9 27 0.0 0.0 0.00 0.23 0.13 88 1011.0
20260505061021 9 0 0.0 0.0 0.00 0.23 0.13 88 1011.2
20260505060022 9 23 0.0 0.0 0.00 0.23 0.13 88 1011.3